Tracking 32139 objects as of 17-Nov-2025
HD Live streaming from Space Station
objects crossing your sky now

STARLINK-34976

Track STARLINK-34976 now!
10-day predictions
STARLINK-34976 is classified as:


NORAD ID: 65209
Int'l Code: 2025-176M
Perigee: 481.8 km
Apogee: 482.9 km
Inclination: 53.2 °
Period: 94.1 minutes
Semi major axis: 6853 km
RCS: Unknown
Launch date: August 14, 2025
Source: United States (US)
Launch site: AIR FORCE EASTERN TEST RANGE (AFETR)
Your satellite tracking list
Your tracking list is empty




NASA's NSSDC Master Catalog

Two Line Element Set (TLE):
1 65209U 25176M   25320.28661931  .00041540  00000-0  14066-2 0  9994
2 65209  53.1592 319.7781 0000828 106.1002 254.0090 15.30205199 15756
Source of the keplerian elements: AFSPC